EN

Hourly Weather To-Pole

Today, 19 April, Monday

Time Temperature Precipitation Wind Pressure Humidity
00:00 +4°C° 0 mm 2 mps 744 mmHg 95%
01:00 +4°C° 0 mm 2 mps 744 mmHg 95%
02:00 +4°C° 0 mm 2 mps 744 mmHg 96%
03:00 +4°C° 0 mm 2 mps 743 mmHg 96%
04:00 +3°C° 0 mm 3 mps 743 mmHg 96%
05:00 +3°C° 0 mm 3 mps 743 mmHg 96%
06:00 +4°C° 0 mm 3 mps 743 mmHg 92%
07:00 +5°C° 0 mm 3 mps 743 mmHg 87%
08:00 +6°C° 0 mm 4 mps 743 mmHg 83%
09:00 +7°C° 0.2 mm 4 mps 743 mmHg 81%
10:00 +7°C° 0.2 mm 4 mps 743 mmHg 79%
11:00 +8°C° 0.2 mm 4 mps 743 mmHg 77%
12:00 +8°C° 0.4 mm 4 mps 743 mmHg 77%
13:00 +8°C° 0.4 mm 4 mps 743 mmHg 76%
14:00 +8°C° 0.4 mm 5 mps 743 mmHg 76%
15:00 +7°C° 0.2 mm 5 mps 743 mmHg 80%
16:00 +6°C° 0.2 mm 5 mps 743 mmHg 84%
17:00 +5°C° 0.2 mm 5 mps 743 mmHg 88%
18:00 +5°C° 0 mm 5 mps 743 mmHg 90%
19:00 +5°C° 0 mm 5 mps 743 mmHg 91%
20:00 +4°C° 0 mm 4 mps 743 mmHg 92%
21:00 +4°C° 0.1 mm 4 mps 743 mmHg 92%
22:00 +4°C° 0.1 mm 4 mps 742 mmHg 92%
23:00 +4°C° 0.1 mm 4 mps 742 mmHg 92%

Tomorrow, 20 April, Tuesday

Time Temperature Precipitation Wind Pressure Humidity
00:00 +4°C° 1 mm 3 mps 742 mmHg 93%
01:00 +4°C° 1 mm 3 mps 741 mmHg 95%
02:00 +4°C° 1 mm 3 mps 741 mmHg 96%
03:00 +4°C° 0.3 mm 3 mps 741 mmHg 95%
04:00 +4°C° 0.3 mm 3 mps 741 mmHg 95%
05:00 +4°C° 0.3 mm 3 mps 741 mmHg 95%
06:00 +4°C° 0.1 mm 3 mps 740 mmHg 95%
07:00 +5°C° 0.1 mm 3 mps 740 mmHg 95%
08:00 +5°C° 0.1 mm 3 mps 740 mmHg 94%
09:00 +6°C° 0.1 mm 4 mps 740 mmHg 92%
10:00 +6°C° 0.1 mm 4 mps 740 mmHg 89%
11:00 +7°C° 0.1 mm 4 mps 739 mmHg 86%
12:00 +7°C° 0 mm 5 mps 739 mmHg 85%
13:00 +7°C° 0 mm 5 mps 738 mmHg 84%
14:00 +7°C° 0 mm 6 mps 738 mmHg 83%
15:00 +6°C° 0 mm 5 mps 737 mmHg 86%
16:00 +5°C° 0 mm 5 mps 737 mmHg 89%
17:00 +3°C° 0 mm 5 mps 737 mmHg 92%
18:00 +2°C° 0.1 mm 5 mps 736 mmHg 93%
19:00 +2°C° 0.1 mm 5 mps 735 mmHg 95%
20:00 +1°C° 0.1 mm 5 mps 735 mmHg 96%
21:00 +1°C° 0.4 mm 5 mps 734 mmHg 96%
22:00 0°C° 0.4 mm 4 mps 734 mmHg 96%
23:00 0°C° 0.4 mm 4 mps 733 mmHg 96%

Day after tomorrow, 21 April, Wednesday

Time Temperature Precipitation Wind Pressure Humidity
00:00 0°C° 0.5 mm 4 mps 733 mmHg 97%
01:00 0°C° 0.5 mm 4 mps 732 mmHg 97%
02:00 0°C° 0.5 mm 4 mps 732 mmHg 97%
03:00 0°C° 0.1 mm 5 mps 732 mmHg 97%
04:00 0°C° 0.1 mm 5 mps 732 mmHg 97%
05:00 0°C° 0.1 mm 5 mps 733 mmHg 96%
06:00 +1°C° 0 mm 5 mps 733 mmHg 93%
07:00 +1°C° 0 mm 5 mps 734 mmHg 90%
08:00 +2°C° 0 mm 5 mps 734 mmHg 87%
09:00 +3°C° 0 mm 5 mps 735 mmHg 83%
10:00 +5°C° 0 mm 5 mps 735 mmHg 78%
11:00 +6°C° 0 mm 5 mps 736 mmHg 73%
12:00 +6°C° 0.1 mm 5 mps 736 mmHg 73%
13:00 +7°C° 0.1 mm 5 mps 736 mmHg 72%
14:00 +7°C° 0.1 mm 5 mps 737 mmHg 71%
15:00 +7°C° 0.1 mm 5 mps 737 mmHg 70%
16:00 +7°C° 0.1 mm 4 mps 737 mmHg 69%
17:00 +7°C° 0.1 mm 4 mps 738 mmHg 68%
18:00 +6°C° 0 mm 4 mps 738 mmHg 73%
19:00 +5°C° 0 mm 3 mps 739 mmHg 79%
20:00 +4°C° 0 mm 3 mps 739 mmHg 84%
21:00 +4°C° 0 mm 3 mps 739 mmHg 82%
22:00 +4°C° 0 mm 4 mps 739 mmHg 81%
23:00 +5°C° 0 mm 4 mps 739 mmHg 79%

22 April, Thursday

Time Temperature Precipitation Wind Pressure Humidity
00:00 +4°C° 0 mm 4 mps 739 mmHg 80%
01:00 +4°C° 0 mm 4 mps 740 mmHg 81%
02:00 +4°C° 0 mm 4 mps 740 mmHg 82%
03:00 +4°C° 0 mm 4 mps 740 mmHg 84%
04:00 +5°C° 0 mm 4 mps 740 mmHg 85%
05:00 +5°C° 0 mm 3 mps 740 mmHg 87%
06:00 +6°C° 0 mm 4 mps 741 mmHg 83%
07:00 +7°C° 0 mm 4 mps 741 mmHg 79%
08:00 +8°C° 0 mm 5 mps 741 mmHg 76%
09:00 +10°C° 0.1 mm 5 mps 741 mmHg 70%
10:00 +11°C° 0.1 mm 6 mps 742 mmHg 65%
11:00 +13°C° 0.1 mm 6 mps 742 mmHg 59%
12:00 +14°C° 0.4 mm 6 mps 742 mmHg 58%
13:00 +14°C° 0.4 mm 6 mps 742 mmHg 56%
14:00 +15°C° 0.4 mm 6 mps 742 mmHg 54%
15:00 +14°C° 0.4 mm 6 mps 742 mmHg 58%
16:00 +14°C° 0.4 mm 5 mps 742 mmHg 61%
17:00 +13°C° 0.4 mm 5 mps 742 mmHg 64%
18:00 +12°C° 0.2 mm 4 mps 742 mmHg 71%
19:00 +10°C° 0.2 mm 4 mps 742 mmHg 77%
20:00 +9°C° 0.2 mm 3 mps 743 mmHg 83%
21:00 +9°C° 0.2 mm 3 mps 743 mmHg 84%
22:00 +8°C° 0.2 mm 3 mps 743 mmHg 86%
23:00 +8°C° 0.2 mm 3 mps 743 mmHg 87%

23 April, Friday

Time Temperature Precipitation Wind Pressure Humidity
00:00 +8°C° 0 mm 3 mps 743 mmHg 88%
01:00 +7°C° 0 mm 3 mps 742 mmHg 88%
02:00 +7°C° 0 mm 3 mps 742 mmHg 89%
03:00 +7°C° 0 mm 3 mps 742 mmHg 89%
04:00 +7°C° 0 mm 3 mps 742 mmHg 88%
05:00 +7°C° 0 mm 3 mps 742 mmHg 88%
06:00 +7°C° 0 mm 4 mps 742 mmHg 84%
07:00 +10°C° 0 mm 4 mps 742 mmHg 79%
08:00 +10°C° 0 mm 5 mps 741 mmHg 75%
09:00 +13°C° 0.2 mm 6 mps 741 mmHg 68%
10:00 +14°C° 0.2 mm 6 mps 741 mmHg 61%
11:00 +16°C° 0.2 mm 7 mps 741 mmHg 53%
12:00 +15°C° 0.3 mm 7 mps 740 mmHg 55%
13:00 +15°C° 0.3 mm 7 mps 740 mmHg 57%
14:00 +15°C° 0.3 mm 6 mps 739 mmHg 58%
15:00 +14°C° 0.4 mm 6 mps 739 mmHg 63%
16:00 +13°C° 0.4 mm 6 mps 739 mmHg 68%
17:00 +11°C° 0.4 mm 6 mps 739 mmHg 73%
18:00 +9°C° 1.6 mm 5 mps 739 mmHg 79%
19:00 +7°C° 1.6 mm 4 mps 740 mmHg 85%
20:00 +5°C° 1.6 mm 3 mps 740 mmHg 91%
21:00 +5°C° 0.1 mm 3 mps 740 mmHg 90%
22:00 +4°C° 0.1 mm 3 mps 740 mmHg 90%
23:00 +4°C° 0.1 mm 3 mps 740 mmHg 90%

24 April, Saturday

Time Temperature Precipitation Wind Pressure Humidity
00:00 +4°C° 0 mm 3 mps 740 mmHg 90%
01:00 +3°C° 0 mm 3 mps 740 mmHg 91%
02:00 +3°C° 0 mm 3 mps 739 mmHg 92%
03:00 +2°C° 0 mm 3 mps 739 mmHg 93%
04:00 +2°C° 0 mm 3 mps 739 mmHg 94%
05:00 +2°C° 0 mm 3 mps 739 mmHg 95%
06:00 +3°C° 0 mm 4 mps 739 mmHg 89%
07:00 +3°C° 0 mm 5 mps 739 mmHg 82%
08:00 +4°C° 0 mm 6 mps 739 mmHg 76%
09:00 +4°C° 0 mm 6 mps 740 mmHg 70%
10:00 +4°C° 0 mm 6 mps 740 mmHg 63%
11:00 +5°C° 0 mm 6 mps 740 mmHg 57%
12:00 +7°C° 0 mm 6 mps 740 mmHg 52%
13:00 +7°C° 0 mm 6 mps 740 mmHg 46%
14:00 +8°C° 0 mm 6 mps 740 mmHg 41%
15:00 +8°C° 0 mm 5 mps 740 mmHg 43%
16:00 +8°C° 0 mm 4 mps 740 mmHg 46%
17:00 +7°C° 0 mm 4 mps 740 mmHg 49%
18:00 +7°C° 0 mm 3 mps 740 mmHg 53%
19:00 +6°C° 0 mm 2 mps 740 mmHg 58%
20:00 +5°C° 0 mm 1 mps 740 mmHg 63%
21:00 +5°C° 0 mm 1 mps 740 mmHg 63%
22:00 +5°C° 0 mm 1 mps 740 mmHg 64%
23:00 +3°C° 0 mm 2 mps 740 mmHg 64%
Show more

We Need Your Consent

Meteoprog and our Service Providers may store and access personal data such as cookies, device identifiers or other similar technologies on your device and process such data to personalise content and ads, as well as provide social media features and to analyse the traffic.

  • Store and/or access information on your device

    Cookies, device identifiers or other information can be stored or accessed on your device for the purposes indicated above.

  • Personalised ads and content, ad and content measurement, audience insights, and products development

    Ads and content can be personalised based on a profile. More data can be added to better personalise ads and content. Ad and content performance can be measured. Insights about the audience who saw the ads and content can be derived. Such data can be used to develop or improve user’s experience, systems and software.

By clicking ‘I Agree’ you will allow the use of indicated cookies, device identifiers, web beacons or other similar technologies. Your settings can be changed in the browser on your device.

For certain purposes, legitimate interests may be relied on, rather than consent. You can read more about this in our Privacy and Cookie Policy.